{"data":{"norad_id":57150,"epoch":"2026-05-25T03:19:44.715072Z","epoch_age_seconds":59717,"freshness":"FRESH","line1":"1 57150U 23090BB  26145.13871198 -.00002415  00000+0 -80340-4 0  9990","line2":"2 57150  43.0017 198.5545 0001675 262.8497  97.2164 15.26749703162157","mean_motion":15.26749703,"eccentricity":0.0001675,"inclination_deg":43.0017,"raan_deg":198.5545,"arg_perigee_deg":262.8497,"mean_anomaly_deg":97.2164,"bstar":-8.034e-5,"rev_number":16215,"period_min":94.318014090355,"perigee_km":484.38676532283,"apogee_km":486.68609592209,"semimajor_km":6863.6734306225,"source":"CELESTRAK","updated_at":"2026-05-25T13:38:18.249862Z"}}